Location: Asheville, NC
(35.6000°N, 82.5500°W)
Time: 17:11:25
(UTC-04:00)

SEEDS - Pass Details

Date: 15 March 2018
Orbit: 586 x 606 km, 97.5° (Epoch: 18 June)

Event Time Altitude Azimuth Distance (km) Brightness Sun altitude
Rises 20:39:16 0° 194° (SSW) 2,799 ? -13.3°
Reaches altitude 10° 20:41:42 10° 207° (SSW) 1,906 ? -13.8°
Maximum altitude 20:45:10 26° 264° (W) 1,184 ? -14.5°
Drops below altitude 10° 20:48:40 10° 321° (NW) 1,927 ? -15.2°
Sets 20:51:08 0° 334° (NNW) 2,837 ? -15.7°
